Location: Star Hoppers Observatory
(42.7905°N, 83.6127°W)
Time: 17:31:20
(UTC-04:00)

Daily predictions for brighter satellites

Satellite Brightness Start Highest point End
(mag) Time Altitude Azimuth Time Altitude Azimuth Time Altitude Azimuth
ATLAS CENTAUR R/B 3.7 20:55:25 10° W 20:57:37 22° SW 21:01:37 10° S
Envisat 3.7 20:53:22 10° SE 20:58:00 37° ENE 21:02:39 10° N
Cosmos 1302 Rocket 4.2 20:53:32 10° SSW 20:58:44 81° WNW 21:03:57 10° NNE
USA 234 3.7 20:54:56 10° ESE 21:01:17 55° NNE 21:07:38 10° NW
Resurs 01 Rocket 1.8 20:59:04 10° S 21:03:31 79° WSW 21:08:00 10° NNW
CZ-3B DEB 3.7 21:01:57 10° W 21:04:06 13° WSW 21:05:45 10° SW
Intercosmos 25 Rocket 3.8 21:01:35 10° SSE 21:04:33 34° E 21:08:18 10° NNE
GRACE-1 3.9 21:02:54 10° N 21:05:39 82° W 21:08:22 10° S
GRACE-2 3.9 21:03:17 10° N 21:06:02 82° W 21:08:45 10° S
Cosmos 1455 2.9 21:03:17 10° SSW 21:07:01 58° W 21:10:46 10° N
OAO 3 Rocket 4.2 21:04:34 10° WSW 21:08:56 33° S 21:13:18 10° ESE
Cosmos 1939 Rocket 3.7 21:06:36 10° SE 21:10:14 33° ENE 21:13:51 10° N
YAOGAN 6 4.2 21:10:21 10° ESE 21:13:01 19° ENE 21:15:41 10° NNE
Lacrosse 4 Rocket 1.5 21:10:44 10° NNW 21:15:04 85° ENE 21:19:29 10° SSE
Helios 1B rocket 2.7 21:11:23 10° NNE 21:15:22 46° E 21:19:18 10° S
Cosmos 2142 Rocket 4.4 21:10:40 10° S 21:16:46 77° E 21:22:57 10° N
Atlas Centaur 2 3.8 21:14:46 10° SW 21:20:10 25° SSE 21:25:41 12° ESE
ERBS 3.8 21:19:35 10° WNW 21:22:43 32° SW 21:25:51 10° SSE
Abrixas rocket 3.6 21:21:48 10° W 21:24:54 37° NNW 21:27:59 10° ENE
ERS-1 Rocket 3.8 21:22:06 12° SE 21:26:08 33° ENE 21:30:35 10° N
Spot 1 4.5 21:22:50 10° SSE 21:28:00 82° ENE 21:33:05 10° NNW
Cosmos 2026 Rocket 4.0 21:23:49 10° N 21:30:06 87° E 21:36:14 10° S
Cosmos 2263 Rocket 2.2 21:26:09 10° NNW 21:31:43 68° ENE 21:36:41 13° SE
SeaSat 1 4.1 21:31:07 11° E 21:34:26 21° NE 21:38:04 10° N
Cosmos 1869 4.4 21:34:13 10° SSW 21:38:01 47° WNW 21:41:52 10° N
SJ-11-01 4.2 21:33:33 10° SSE 21:38:12 75° ENE 21:42:53 10° N
Cosmos 2322 Rocket 2.4 21:35:12 10° SSW 21:40:48 78° WNW 21:46:28 10° NNE
CZ-4B DEB 2.6 21:38:37 13° SSE 21:41:19 86° WSW 21:44:22 10° NNW
USA 229 DEB 4.2 21:37:15 10° S 21:43:21 36° ESE 21:49:34 10° NE
USA 229 4.2 21:37:23 10° S 21:43:28 36° ESE 21:49:39 10° NE
Cosmos 1733 Rocket 3.1 21:39:00 10° N 21:43:29 90° WSW 21:47:56 10° S
COSMOS 2428 3.9 21:43:30 18° ESE 21:45:09 20° E 21:49:12 10° NE
Cosmos 1992 Rocket 4.0 21:43:33 10° SSW 21:48:47 89° WNW 21:54:04 10° NNE
Cosmos 2360 Rocket 2.4 21:44:27 10° S 21:49:52 49° ESE 21:55:19 10° NE
Cosmos 1825 3.2 21:46:52 10° NNW 21:50:32 47° W 21:54:11 10° SSW
Cosmos 1862 Rocket 3.6 21:47:58 10° S 21:52:25 88° W 21:56:57 10° N
USA 186 4.0 21:50:21 10° SSW 21:52:34 21° W 21:54:54 10° NW
Okean 1-7 4.1 21:56:12 24° ESE 21:57:07 26° E 22:00:47 10° NNE
Helios 1A 4.2 21:57:12 10° S 22:01:12 41° W 22:05:15 10° NNW
Cosmos 2322 3.8 21:57:05 10° S 22:02:38 54° ESE 22:08:12 10° NNE
MetOp-B 4.5 22:00:03 24° SE 22:03:04 49° ENE 22:08:13 10° N
SPOT 5 3.5 22:02:05 26° ESE 22:04:04 37° ENE 22:08:20 10° N
ATLAS 5 CENTAUR R/B 2.4 22:01:36 10° NW 22:07:38 87° NE 22:11:35 25° SE
USA 267 4.5 22:03:03 10° NE 22:09:08 43° NNW 22:15:13 10° W
SL-16 R/B 3.3 22:04:41 10° SW 22:10:08 48° WNW 22:15:38 10° NNE
Cosmos 1933 4.0 22:06:50 10° SSW 22:10:48 56° W 22:14:46 10° N
Cosmos 1703 Rocket 3.6 22:10:28 26° SSE 22:12:46 58° E 22:17:08 10° NNE
ARGOS 3.4 22:15:14 30° SE 22:17:35 51° ENE 22:22:47 10° N
Cosmos 2266 Rocket 4.0 22:12:21 10° N 22:18:39 74° E 22:22:35 25° SSE
Cosmos 2333 Rocket 3.8 22:26:30 18° E 22:26:30 18° E 22:29:09 10° NE
YAOGAN 11 4.0 22:23:44 40° SSE 22:25:13 73° ENE 22:29:33 10° N
Cosmos 968 Rocket 3.5 22:20:04 10° NNW 22:25:17 79° WSW 22:27:52 30° S
Cosmos 2237 Rocket 4.2 22:29:25 12° ENE 22:29:25 12° ENE 22:30:12 10° ENE
Cosmos 2221 Rocket 3.5 22:26:56 42° SSE 22:28:15 64° E 22:32:39 10° NNE
Cosmos 1867 3.6 22:23:57 10° NW 22:29:25 76° WSW 22:31:43 35° SSE
Cosmos 2278 Rocket 3.8 22:25:31 10° N 22:29:52 22° NE 22:31:49 18° ENE
H-2A R/B 2.5 22:30:59 36° ESE 22:32:07 41° ENE 22:36:44 10° N
Cosmos 1844 Rocket 3.1 22:28:45 10° NNW 22:34:10 48° ENE 22:35:50 37° ESE
SL-08 RB Rocket 3.8 22:35:33 48° ESE 22:36:28 59° ENE 22:40:58 10° N
Cosmos 1782 3.4 22:42:03 42° ENE 22:42:03 42° ENE 22:45:17 10° NNE
Landsat 7 4.4 22:41:57 39° E 22:42:28 40° ENE 22:46:54 10° N
USA 234 3.7 22:41:13 29° S 22:44:19 50° SW 22:50:39 10° WNW
YAOGAN 6 4.4 22:44:48 19° SW 22:46:25 27° W 22:49:32 10° NW
CZ-4C R/B 3.8 22:41:50 10° NNW 22:48:14 37° NE 22:51:55 24° E
MetOp-A 4.4 22:46:32 32° S 22:48:59 64° WSW 22:54:19 10° NNW
Cosmos 1553 Rocket 4.5 22:52:37 38° ESE 22:53:14 39° E 22:58:57 10° NNE
Cosmos 2219 Rocket 2.6 22:54:47 42° E 22:54:47 42° E 22:59:35 10° NE
H-2A R/B 2.7 22:57:30 42° ENE 22:57:30 42° ENE 23:01:18 10° N
Terra 2.5 22:57:33 39° ENE 22:57:36 39° ENE 23:02:01 10° N
Meteor 1-27 Rocket 4.3 22:59:53 39° E 22:59:53 39° E 23:04:48 10° NNE
Abrixas rocket 3.9 22:59:14 10° WNW 23:02:05 30° N 23:02:05 30° N
ERS-1 Rocket 4.5 23:02:05 18° SW 23:04:53 31° W 23:09:19 10° NW
Atlas Centaur 2 3.7 23:02:22 10° WSW 23:08:19 33° S 23:08:19 33° S
SeaSat 1 2.5 23:10:54 58° SSW 23:11:32 64° WSW 23:16:27 10° NNW
Cosmos 2263 Rocket 4.4 23:11:32 10° WNW 23:15:01 17° W 23:18:24 10° SW
MOS 1-B Rocket 4.3 23:16:15 38° SSW 23:18:14 55° WSW 23:23:46 10° NNW
Meteor 1-10 Rocket 4.3 23:18:03 52° SSW 23:19:37 84° W 23:25:31 10° N
SPOT 1/Viking Rocket 3.8 23:18:47 52° SW 23:19:42 61° W 23:24:53 10° NNW
S3M 3.9 23:22:42 62° ESE 23:23:07 63° E 23:29:15 10° NNE
Meteor 1-11 Rocket 3.7 23:17:46 10° N 23:23:16 64° ENE 23:23:21 63° E
Okean 2 Rocket 4.1 23:21:54 10° NNW 23:26:06 38° W 23:26:36 37° WSW
Cosmos 1898 Rocket 4.2 23:23:24 10° N 23:28:03 40° NE 23:28:03 40° NE
COSMOS 2428 3.2 23:25:21 23° SW 23:28:53 59° WNW 23:34:32 10° NNE
NOSS 3-1 (C) 3.2 23:28:28 72° S 23:28:59 78° ESE 23:35:27 10° NE
SL-19 R/B 4.2 23:24:55 10° NNE 23:31:00 75° ESE 23:31:17 73° SE
Cosmos 1633 4.1 23:28:02 10° N 23:30:15 34° NNW 23:30:15 34° NNW
USA 229 DEB 4.5 23:27:29 10° WSW 23:34:06 51° NW 23:40:54 10° NNE
Cosmos 2360 Rocket 4.2 23:29:22 10° WSW 23:34:07 27° NW 23:38:54 10° N
USA 229 4.5 23:27:35 10° WSW 23:34:13 51° NW 23:41:00 10° NNE
Iridium 4 Rocket 4.2 23:33:00 10° N 23:35:39 37° NNE 23:35:39 37° NNE
Cosmos 1536 4.4 23:38:25 10° N 23:40:40 30° NNE 23:40:40 30° NNE
Cosmos 1980 4.0 23:43:54 55° NE 23:43:54 55° NE 23:48:25 10° NNE
Cosmos 1844 3.8 23:37:37 10° NNW 23:43:13 63° WSW 23:43:17 63° WSW
NOSS 3-1 (A) 3.4 23:45:11 67° ENE 23:45:11 67° ENE 23:51:00 10° NE
Cosmos 1606 4.5 23:45:38 30° NW 23:45:38 30° NW 23:48:16 10° N
ATLAS 2AS CENTAUR R/B 4.5 23:48:54 20° E 23:48:54 20° E 23:52:24 10° ENE
SL-16 R/B 3.9 23:50:52 20° ENE 23:50:52 20° ENE 23:53:02 10° NE
ASTEX 1 3.8 23:49:14 61° WNW 23:49:14 61° WNW 23:53:52 10° NNW
Meteor 2-11 Rocket 4.3 23:49:32 82° E 23:49:32 82° E 23:55:40 10° N
ATLAS 5 CENTAUR R/B 4.3 23:47:48 10° WNW 23:51:49 18° WSW 23:53:09 17° SW
deb Chang Zheng 4 4.5 23:47:55 10° N 23:51:17 48° NNW 23:51:17 48° NNW
